一网星座-0112星 (ONEWEB-0112 )

导读 | 星芒AI

ONEWEB-0112 是 OneWeb 卫星通信公司发射的低轨通信卫星之一,属于其全球宽带互联网星座计划。该卫星运行在约 1200 公里的近地轨道,旨在为全球用户提供高速、低延迟的互联网服务。ONEWEB-0112 采用先进通信技术,支持多频段传输,增强网络覆盖能力。其发射进一步完善了 OneWeb 的卫星网络,助力偏远地区和航空、航海等移动场景的联网需求。该卫星由阿丽亚娜航天公司制造,使用联盟号火箭发射入轨,是 OneWeb 扩展全球服务的重要组成部分。

基本信息
目录编号:
48051
目录名称:
ONEWEB-0112
国际标识:
2021-025K
轨道中心:
EARTH
卫星名称:
一网星座-0112星
卫星全名:
一网星座-0112星 (ONEWEB-0112 )
卫星状态:
在轨 (已飞行1726 天)
发射日期:
2021-03-25 UTC
国别 :
英国 (GB)
星等 :
--
轨道信息
数据来源 国际轨道数据 AOE轨道数据
星历时间 2025-12-15T02:14:16+0800
1天前
查看轨道信息
2025-12-13T19:00:00+0800
2天前
查看轨道信息
半长轴 7587.896km 7587.89km
偏心率 0.0001691 0.0001437
轨道倾角 87.899° 87.899°
近地点辐角 93.117° 93.040°
升交点赤经 356.854° 357.112°
平近点角 267.015° 236.101°
近地点 1208.477km 1208.664km
远地点 1211.045km 1210.846km
周期 109.633分钟 109.633分钟
每日圈数 13.134719 13.134733
详细信息
平衡模式:
三轴稳定
覆盖范围:
全球
运营商:
一网卫星公司
运营商所在国:
英国
制造商(研发单位):
一网卫星公司
制造商所在国:
英国
使用方式:
暂无
卫星简介
OneWeb卫星网络由648颗重约125公斤的微型卫星组成,运行在1200公里的轨道上。 每颗卫星都能够提供至少每秒8千兆位的吞吐量,以使用其高吞吐量的Ku频段有效载荷为家庭和移动平台提供互联网接入。该卫星仍在工作。
2D轨道图
3D轨道图
轨道高度分析图
轨道倾角分析图
轨道综合分析图
查看轨道综合分析图